www.pogodaiklimat.ru

Погода и климат >> Архив погоды >> Нигерия >> Cano


ПОГОДА в Cano

  • Прогноз погоды в Cano
  • Монитор погоды в Cano
  • Климат города

АРХИВ ПОГОДЫ в Cano

Время (UTC), дата Ветер
(напр.,м/с)
 
Видим.   Явления Облачность Т
(С)
Тd
(С)
f
(%)
Тe
(С)
Тes
(С)
Комфортность P
(гПа)
Po
(гПа)
Тmin
(С)
Tmax
(С)
R
(мм)
R24
(мм)
S
(см)
12 14.10 С 3 10 км 8/0
[Ac trans Cs]
+34.4 +18.8 40 +39 +48 очень
душно
1010.9 1058.5
21 14.10 СЗ 3 10 км 8/0
[Cs]
+26.6 +19.6 65 +32 +32 очень
душно
1013.8 1059.9
03 15.10 ЮЗ 3 10 км 8/0
[Cs]
+23.2 +18.8 76 +29 +29 душно 1018.1 1058.8
06 15.10 Ю 2 10 км 8/0
[Ac trans Cs]
+22.4 +19.0 81 +28 +28 душно 1014.7 1060.0 +22.2
09 15.10 З 3 10 км 8/0
[Ac trans Cs]
+31.2 +20.2 52 +38 +44 очень
душно
1014.8 1031.6
12 15.10 Ю 2 10 км 8/3 400 м
[Cu hum Cs]
+35.0 +19.4 40 +40 +51 опасность
солнечного
удара
1012.1 1059.7
09 16.10 СЗ 4 10 км 8/0
[Cs]
+30.6 +21.4 58 +39 +46 очень
душно
1015.6 1062.3
12 16.10 СВ 3 10 км 8/0
[Cs]
+35.0 +19.5 40 +40 +54 опасность
солнечного
удара
1012.5 1060.1
15 16.10 СВ 3 10 км 8/4 420 м
[Cu med, cong Ac trans Cs]
+34.5 +18.3 38 +39 +41 очень
душно
1010.3 1057.9
18 16.10 штиль 0 10 км 8/0 300 м
[Ac trans Cs]
+28.0 +22.0 70 +36 +36 очень
душно
1012.0 1058.4 +36.0
00 17.10 ЮЗ 1 7000 м дым 8/0
[Cs]
+24.0 +20.4 80 +30 +30 очень
душно
1013.6 1059.2
03 17.10 ЮЗ 3 7000 м дым 8/0
[Cs]
+23.3 +19.8 81 +30 +30 очень
душно
1012.8 1058.4
06 17.10 ЮЗ 3 8000 м дым 8/0
[Cs]
+22.5 +19.2 82 +28 +29 душно 1014.9 1060.2
09 17.10 СЗ 3 10 км 8/0
[Cs]
+30.5 +21.6 59 +39 +47 очень
душно
1014.6 1061.3
12 17.10 В 3 10 км 8/3 300 м
[Cu med, cong Cs]
+35.4 +16.1 32 +38 +48 очень
душно
1010.6 1059.0
15 17.10 СВ 2 10 км 8/1 480 м
[Cu med, cong Cs]
+35.6 +13.7 27 +36 +41 очень
жарко
1008.6 1056.5
18 17.10 Ю 2 10 км 8/0
[Ac trans Cs]
+25.0 +17.9 65 +29 +29 душно 1011.4 1057.3 +36.5
21 17.10 З 2 10 км 8/0
[Ac trans Cs]
+21.2 +16.8 76 +25 +25 комфорт 1013.9 1059.0
00 18.10 ЮЗ 2 10 км 8/0
[Cs]
+23.0 +15.6 63 +27 +27 душно 1012.6 1058.1
03 18.10 ЮЗ 3 10 км 8/0
[]
+22.5 +19.4 83 +29 +29 очень
душно
1013.0 1058.5
06 18.10 ЮЗ 4 10 км 8/0
[Cs]
+22.5 +21.0 91 +29 +30 очень
душно
1013.9 1059.3 +21.0
09 18.10 З 4 10 км 8/0
[Cs]
+29.9 +22.8 66 +40 +46 очень
душно
1012.9 1059.6
12 18.10 С 2 10 км 8/1 450 м
[Cu med, cong Cs]
+35.2 +16.9 34 +38 +52 опасность
солнечного
удара
1009.5 1057.3
15 18.10 В 3 10 км 8/1 480 м
[Cu med, cong Cs]
+35.8 +13.3 26 +36 +40 очень
жарко
1007.2 1055.2
18 18.10 С 2 7000 м дым 8/0
[Cs]
+27.4 +20.8 67 +34 +34 очень
душно
1010.0 1056.4 +36.9
21 18.10 З 2 10 км 8/0
[Cs]
+22.6 +19.4 82 +29 +29 очень
душно
1012.8 1058.2
00 19.10 З 2 10 км 8/0
[Cs]
+22.7 +18.0 75 +28 +28 душно 1011.5 1057.0
03 19.10 ЮЗ 4 10 км 8/0
[Cs]
+23.7 +20.8 84 +30 +30 очень
душно
1011.7 1057.3
06 19.10 ЮЗ 2 10 км 8/0
[Ac trans Cs]
+23.3 +22.0 92 +32 +32 очень
душно
1013.2 1058.7 +21.4
09 19.10 ЮЗ 2 10 км 9/0
[Cs]
+29.9 +23.3 68 +40 +51 опасность
солнечного
удара
1013.3 1060.0
12 19.10 В 2 10 км 9/1 500 м
[Cu med, cong Cs]
+35.6 +15.5 30 +37 +51 опасность
солнечного
удара
1009.7 1057.5
15 19.10 В 5 10 км 9/3 500 м
[Cu med, cong Cs]
+35.0 +14.1 29 +36 +38 очень
жарко
1008.1 1055.9
18 19.10 штиль 0 10 км 8/0
[Ac trans Cs]
+28.5 +15.7 46 +32 +32 душно 1010.1 1056.7
21 19.10 З 1 10 км 8/0
[Cs]
+20.7 +17.7 83 +26 +26 душно 1012.6 1057.7
00 20.10 штиль 0 10 км 8/0
[Cs]
+19.3 +17.2 88 +21 +21 комфорт 1012.3 1057.2
03 20.10 З 2 10 км 8/0
[Cs]
+17.9 +15.9 88 +19 +19 1012.3 1056.9
06 20.10 штиль 0 7000 м 8/0
[Cs]
+21.6 +14.4 64 +25 +25 комфорт 1014.2 1058.5 +16.5
09 20.10 В 3 10 км 8/0 240 м
[Cs]
+29.2 +14.9 42 +32 +40 душно 1013.5 1060.1
12 20.10 8000 м 8/0
[Ac trans Cs]
+35.8 +7.4 17 1010.3 1038.1
18 20.10 СВ 3 10 км 8/0
[Cs]
+25.0 +17.0 61 +29 +29 душно 1010.6 1056.6
21 20.10 З 1 10 км 8/0
[Cs]
+20.0 +16.7 81 +24 +24 комфорт 1013.1 1058.0
00 21.10 З 2 10 км 8/0
[Cs]
+19.5 +15.3 77 +22 +22 комфорт 1012.4 1057.3

 

Местоположение метеостанции Cano (Нигерия): широта 12.05 долгота 8.53 высота над уровнем моря 476 м.

В архиве по умолчанию представлена погода в Cano за последнюю неделю. Архивные данные за месяц целиком и за предыдущие месяцы, начиная с января 2011 года, Вы можете получить, выбрав интересующий диапазон дат из раскрывающегося списка и нажав кнопку "Ввод!".


*Определитесь, кто Вы:
робот инопланетянин человек

Внимание! Время в таблицах - всемирное. Для получения местного времени необходимо прибавить поправку, которая в Cano равна 3 ч.

Смотрите также архив погоды в соседних городах и на ближайших метеорологических станциях:

Погода в Magaria (Нигер) (112 км)
Погода в Zinder (Нигер) (199 км)
Погода в Maradi (Нигер) (223 км)
Погода в Goure (Нигер) (288 км)
Погода в Abuja (Нигерия) (353 км)
Погода в Maine-Soroa (Нигер) (397 км)
Погода в Birni-Nkonni (Нигер) (405 км)
Погода в Bida (Нигерия) (428 км)
Погода в Yelwa (Нигерия) (432 км)
Погода в Tahoua (Нигер) (476 км)

Пояснения к столбцам:

Ветер - указаны скорость ветра в м/с - средняя за 10 мин, порывы в срок и между сроками (в фигурных скобках) и направление, откуда дует ветер: С - северный, СВ - северо-восточный, В - восточный, ЮВ - юго-восточный, Ю - южный, ЮЗ - юго-западный, З - западный, СЗ - северо-западный.
Видимость - горизонтальная дальность видимости в метрах или километрах. При видимости от 1 до 10 км при отсутствии осадков обычно наблюдается дымка, при ухудшении видимости до 1 км и менее - туман. В сухую погоду видимость может ухудшаться дымом, пылью или мглою.
Явления - указаны атмосферные явления, наблюдавшиеся в срок или в последний час перед сроком; фигурными скобками обозначены явления, наблюдавшиеся между сроками (за 1-3 часа до срока); квадратными скобками обозначены град или гололедные отложения с указанием их диаметра в мм.
Облачность - указаны через наклонную черту общая и нижняя облачность в баллах и высота нижней границы облаков в метрах; квадратными скобками обозначены формы облаков: Ci - перистые, Cs - перисто-слоистые, Cc - перисто-кучевые, Ac - высококучевые, As - высокослоистые, Sc - слоисто-кучевые, Ns - слоисто-дождевые, Cu - кучевые, Cb - кучево-дождевые. Подробнее классификацию облаков см. в Атласе облаков (PDF).
T - Температура воздуха - температура, измеренная на высоте 2 м над землей.
Td - Температура точки росы - температура, при понижении до которой содержащийся в воздухе водяной пар достигнет насыщения.
f - Относительная влажность воздуха - влажноcть воздуха, измеренная на высоте 2 м над землей.
Te - Эффективная температура - температура, которую ощущает одетый по сезону человек в тени. Характеристика душности погоды. При расчете учитывается влияние влажности воздуха и скорости ветра на теплоощущения человека.
Tes - Эффективная температура на солнце - температура, которую ощущает человек, с поправкой на солнечный нагрев. Характеристика знойности погоды. Зависит от высоты солнца над горизонтом, облачности и скорости ветра. Ночью, в пасмурную погоду, а также при ветре 12 м/с и более поправка равна нулю.
P - Атмосферное давление - приведенное к уровню моря атмосферное давление.
Po - Атмосферное давление - измеренное на уровне метеостанции атмосферное давление.
Tmin - Минимальная температура - минимум температуры воздуха на высоте 2 м над землей.
Tmax - Максимальная температура - максимум температуры воздуха на высоте 2 м над землей.
R - Количество осадков - Количество выпавших осадков за период времени, мм. При наведении курсора мыши на число - период времени, за который выпало указанное количество осадков.
R24 - Количество осадков - Количество выпавших осадков за 24 часа, мм.
S - Снежный покров - Высота снежного покрова, см. При наведении курсора мыши на число - состояние снежного покрова и степень покрытия местности в баллах.